Location: 22
(39.7117°N, 89.5929°W)
Time: 19:55:27
(UTC-05:00)

Vanguard 3 - Pass Details

Date: 02 February 2023
Orbit: 508 x 3249 km, 33.4° (Epoch: 30 March)

Event Time Altitude Azimuth Distance (km) Brightness Sun altitude
Rises 00:07:37 0° 279° (W) 6,023 11.7 -67.1°
Enters shadow 00:10:08 - 276° (W) 5,526 11.4 -67.2°
Reaches altitude 10° 00:11:17 10° 274° (W) 5,310 - -67.2°
Maximum altitude 00:27:22 50° 206° (SSW) 3,754 - -66.9°
Drops below altitude 10° 00:45:43 10° 139° (SE) 5,961 - -66.0°
Sets 00:50:11 0° 134° (SE) 6,775 - -65.7°
